Location: Ferchesar
(52.6477°N, 12.4298°E)
Time: 20:34:38
(UTC+02:00)

Transit 4A - Pass Details

Date: 01 March 2021
Orbit: 868 x 976 km, 66.8° (Epoch: 10 April)

Event Time Altitude Azimuth Distance (km) Brightness Sun altitude
Rises 17:16:23 0° 315° (NW) 3,622 11.4 4.0°
Reaches altitude 10° 17:19:15 10° 325° (NW) 2,658 10.6 3.6°
Maximum altitude 17:24:45 32° 28° (NNE) 1,526 8.8 2.8°
Drops below altitude 10° 17:30:05 10° 90° (E) 2,583 9.6 2.0°
Sets 17:32:50 0° 101° (E) 3,505 10.3 1.6°
